SCP
0 -0 -0 -0 -0 -0 0 0 0 0 0 0 0 0 0 0 0 0 0 0 0 0 0 0 0 0 0 0 0 1 1 1 1 0 0 0 0 0 0 0 0 0 0
0 -0 -0 -0 -0 -0 0 0 0 0 0 0 0 0 0 0 0 0 0 0 0 0 0 0 0 0 0 0 0 1 1 1 1 0 0 0 0 0 0 0 0 0 0
0 0 -0 -0 0 0 0 0 0 0 0 0 0 0 0 0 0 0 0 0 0 0 0 0 0 0 0 0 0 0 1 1 1 1 0 0 0 0 0 0 0 0 0
0 0 0 0 0 0 0 0 0 0 0 0 0 0 0 0 0 0 0 0 0 0 0 0 0 0 0 0 0 0 0 1 1 1 0 0 0 0 0 0 0 0 0
0 0 0 0 0 0 0 0 0 0 0 0 0 0 0 0 0 0 0 0 0 0 0 0 0 0 0 0 0 0 0 0 1 1 1 0 0 0 0 0 0 0 0
0 0 0 0 0 0 0 0 0 0 0 0 0 0 0 0 0 0 0 0 0 0 0 0 0 0 0 0 0 0 0 0 1 1 1 0 0 0 0 0 0 0 0
0 0 0 0 0 0 0 0 0 0 0 0 0 0 0 0 0 0 0 0 0 0 0 0 0 0 0 0 0 0 0 0 0 1 1 0 0 0 0 0 0 0 0
0 0 0 0 0 0 0 0 0 0 0 0 0 0 0 0 0 0 0 0 0 0 0 0 0 0 0 0 0 0 0 0 0 0 1 0 0 0 0 0 0 0 0
1 1 0 0 0 0 0 0 0 0 0 0 0 0 0 0 0 0 0 0 0 0 0 0 0 0 0 0 0 0 0 0 0 0 0 0 0 0 0 0 0 0 0
1 1 0 0 0 0 0 0 0 0 0 0 0 0 0 0 0 0 0 0 0 0 0 0 0 0 0 0 0 0 0 0 0 0 0 0 0 0 0 0 0 0 0
1 1 1 1 1 1 0 0 0 0 0 1 1 1 0 0 0 0 0 0 0 0 0 0 0 0 0 0 0 0 0 0 0 0 0 0 0 0 0 0 0 0 0
1 1 1 1 1 1 1 1 1 1 1 1 1 1 1 1 0 0 0 0 0 0 0 0 0 0 0 0 0 0 0 0 0 0 0 0 0 0 0 0 0 0 -0
1 1 1 1 1 1 1 1 1 1 1 1 1 1 1 1 0 0 0 0 0 0 0 0 0 0 0 0 0 0 0 0 0 0 0 0 0 0 0 0 -0 -0 -0
1 1 1 1 1 1 1 1 1 1 1 1 1 1 1 1 1 0 0 0 0 0 0 0 0 0 0 0 0 0 0 0 0 0 0 0 0 0 -0 -0 -0 -0 -0
0 0 0 0 0 0 0 0 1 1 1 1 1 1 1 1 1 1 0 0 0 0 0 0 0 0 0 0 0 0 0 0 0 -0 -0 -0 -0 -0 -0 -0 -0 0 0
0 0 0 0 0 0 0 0 0 0 0 1 1 1 1 1 1 1 1 1 1 1 0 0 0 0 0 0 0 0 0 0 -0 -0 -0 -0 -0 0 0 0 0 0 0
0 0 0 0 0 0 0 0 0 0 0 0 0 0 1 1 1 1 1 1 1 1 1 1 1 0 0 0 0 0 0 0 -0 0 0 0 0 0 0 0 0 0 0
0 0 0 0 0 0 0 0 0 0 0 0 0 0 0 0 1 1 1 1 1 1 1 1 1 1 0 0 0 0 0 -0 -0 0 0 0 0 0 0 0 0 0 0
0 0 0 0 0 0 0 0 0 0 0 0 0 0 0 0 0 1 1 1 1 1 1 1 1 1 1 0 0 0 0 0 0 0 0 0 0 0 0 0 0 0 0
0 0 0 0 0 0 0 0 0 0 0 0 0 0 0 0 0 0 1 1 1 1 1 1 1 1 1 1 1 0 0 0 0 0 0 0 0 0 0 0 -0 -0 0
0 0 0 0 0 0 0 0 0 0 0 0 0 0 0 0 0 0 0 0 1 1 1 1 1 1 1 1 1 0 0 0 0 0 0 0 0 0 0 0 0 0 -0
0 0 0 0 0 0 0 0 0 0 0 0 0 0 0 0 0 0 0 0 0 0 1 1 1 1 1 0 0 0 0 0 0 0 0 0 0 0 0 0 0 0 -0
0 0 0 0 0 0 0 0 0 0 0 0 0 0 0 0 0 0 0 0 0 0 0 0 0 0 0 0 0 0 0 0 0 0 0 0 0 0 0 0 0 0 -0
0 0 0 0 0 0 0 -0 0 0 0 0 0 0 0 0 0 0 0 0 0 0 0 0 0 0 0 0 0 0 0 0 0 0 0 0 0 0 0 0 0 0 0
0 0 0 0 0 0 0 0 0 0 0 0 0 0 0 0 0 0 0 0 0 0 0 0 0 0 0 0 0 0 0 0 0 0 0 0 0 0 0 0 0 0 0
0 0 0 0 0 0 0 0 0 0 0 0 0 0 0 0 0 0 0 0 0 0 0 0 0 0 0 0 0 0 0 0 0 0 0 0 0 0 0 0 0 0 0
Wind_Speed
6 5 4 3 6 4 4 5 4 3 4 5 5 6 7 7 7 6 4 7 10 10 11 12 13 14 15 15 18 21 23 23 22 21 21 20 19 18 17 15 14 12 11
5 4 5 5 6 5 5 4 5 4 5 4 5 5 6 7 6 7 7 6 10 10 9 11 12 14 15 15 15 18 21 23 22 22 22 21 20 19 18 17 15 14 13
6 6 6 5 5 6 6 5 6 5 5 4 5 6 6 6 7 6 7 6 5 8 9 8 10 13 14 15 15 16 18 22 22 23 23 23 22 21 19 18 16 15 14
8 7 6 6 5 5 4 5 5 5 4 4 4 4 5 5 6 6 6 5 5 5 5 4 7 11 13 15 15 15 15 18 21 24 25 25 23 22 20 18 17 16 14
9 8 7 6 7 5 5 5 3 4 4 4 4 4 5 5 5 6 6 6 5 5 7 3 7 10 11 13 14 14 15 15 18 23 27 27 26 24 22 19 17 16 15
10 8 7 8 8 6 5 5 4 4 4 4 5 4 5 5 5 5 6 5 4 6 7 7 6 4 6 9 12 13 13 13 16 23 27 28 28 26 23 20 18 17 16
10 8 8 7 8 7 7 7 6 6 6 3 5 5 5 5 3 4 4 4 4 5 5 5 5 6 4 6 9 10 12 12 14 21 25 27 28 27 25 22 19 18 17
10 9 9 8 8 7 8 8 7 7 5 4 5 6 5 3 5 3 2 3 4 4 4 4 5 5 6 6 2 6 9 10 11 17 22 24 25 27 26 22 20 18 17
10 9 10 9 8 8 8 9 8 9 7 6 5 5 5 3 4 3 3 2 3 4 4 4 5 5 6 6 5 2 3 4 5 10 17 21 25 28 26 22 20 18 16
6 8 9 9 8 7 8 9 9 6 7 6 5 5 6 5 5 4 3 4 3 3 3 4 5 4 5 6 4 3 1 2 5 13 19 25 29 28 25 22 20 18 17
2 5 8 7 7 7 8 8 7 7 6 7 5 5 5 5 7 6 6 4 3 2 1 3 3 4 6 6 4 4 4 7 13 19 24 27 28 27 24 21 20 19 19
1 1 5 5 6 6 7 7 7 8 6 7 6 6 6 6 5 5 7 6 5 2 1 2 3 4 4 5 6 7 8 12 15 18 22 24 24 23 21 21 20 21 21
2 1 2 4 4 4 5 5 6 6 6 7 7 6 6 7 6 6 7 7 6 4 2 2 1 2 4 5 6 10 14 14 15 16 17 19 20 20 19 20 20 19 19
2 1 1 3 4 4 5 5 5 6 5 6 7 7 7 7 6 7 7 7 6 6 3 0 2 3 4 5 8 9 12 14 14 14 14 15 16 16 16 15 15 15 15
2 2 1 3 4 5 5 6 5 5 5 6 7 7 7 6 7 7 6 5 5 5 4 2 2 4 4 7 8 8 10 12 13 13 13 13 14 14 14 14 14 13 13
3 2 1 3 4 5 6 6 6 4 5 5 5 7 6 7 6 7 7 6 6 5 4 2 2 5 6 8 8 9 10 13 12 13 13 13 13 14 14 14 14 14 13
4 3 2 2 4 5 5 5 6 5 5 5 5 6 7 7 6 6 6 6 7 6 7 4 2 5 8 8 9 8 10 11 11 14 14 14 14 14 14 14 14 14 14
4 3 2 2 3 4 4 5 5 5 5 5 5 6 6 6 7 7 6 7 7 7 7 7 5 6 8 9 10 10 9 11 10 16 18 16 15 14 14 14 14 14 14
4 4 3 3 3 3 4 4 5 5 5 4 5 5 5 6 7 6 7 7 6 6 6 5 5 5 5 6 8 9 9 7 9 11 16 16 15 15 15 14 14 15 15
5 5 4 4 4 4 4 3 2 2 2 3 4 4 5 6 6 6 5 6 6 6 6 5 4 5 4 4 4 5 6 6 7 7 8 10 13 15 15 14 14 15 15
5 5 5 5 5 5 7 8 3 3 3 4 4 4 5 7 9 9 7 6 4 3 4 4 4 4 3 3 2 3 4 4 5 4 5 7 8 9 10 12 15 15 15
5 5 6 6 7 7 8 10 7 5 4 4 4 4 3 4 4 6 8 11 10 5 2 1 2 2 2 1 1 2 3 4 4 2 3 4 5 6 5 4 2 3 9
4 4 5 6 7 7 6 7 8 5 6 7 6 5 5 5 5 3 3 4 8 9 8 3 3 3 3 2 1 1 2 3 2 2 2 3 3 4 5 6 3 2 1
3 4 5 6 6 6 4 4 5 5 7 7 8 7 7 8 11 11 6 7 8 9 8 6 5 5 4 3 2 1 2 3 1 0 2 3 3 4 4 6 5 3 4
3 3 4 5 6 6 3 3 6 5 6 8 8 9 9 10 13 15 6 6 7 6 8 9 8 7 6 5 2 1 1 2 3 1 1 3 2 2 2 3 5 4 3
2 3 3 4 5 6 4 2 7 3 5 5 5 7 10 10 11 14 8 7 7 6 5 5 4 4 4 4 1 2 1 1 1 1 1 2 1 1 2 2 2 1 2
Wind_Direction
228 239 256 278 270 259 212 223 239 234 251 249 255 258 264 262 266 267 263 225 234 255 270 276 274 271 268 259 245 235 229 223 214 204 198 196 192 188 188 185 179 174 172
240 250 248 250 265 274 277 275 260 251 257 272 270 266 270 275 273 283 283 251 212 225 255 275 282 282 279 273 258 241 231 226 218 205 197 195 191 189 189 185 180 179 177
237 250 262 255 254 257 255 261 269 266 261 263 264 268 268 272 282 283 285 292 274 216 222 256 282 287 285 282 273 256 236 228 219 205 195 193 190 188 188 184 181 181 178
241 252 265 269 262 255 244 240 247 256 256 267 269 271 266 258 260 267 268 266 285 303 264 234 278 285 286 283 280 273 251 232 218 203 195 192 189 186 186 182 180 180 177
241 246 262 273 271 262 254 259 237 257 269 282 275 249 256 251 255 258 275 276 279 292 300 271 246 260 277 285 284 283 270 241 215 201 196 193 188 185 180 179 180 179 178
249 252 256 259 265 265 261 261 265 249 272 275 285 280 263 269 265 268 268 265 270 294 307 322 301 269 254 275 283 283 278 252 216 202 199 195 189 181 173 172 180 180 182
262 255 262 261 255 255 259 259 253 246 245 254 269 266 252 226 243 267 266 290 296 310 309 310 313 324 296 254 258 276 278 263 227 207 204 198 188 175 164 170 180 183 186
269 260 255 262 259 256 255 257 253 270 272 252 277 290 283 217 188 207 241 267 298 302 305 314 327 312 311 309 310 275 278 269 244 213 203 196 182 163 157 169 181 186 189
281 275 268 264 265 260 258 256 251 252 262 259 255 281 294 318 324 188 197 250 283 300 296 329 315 322 316 312 310 287 289 272 236 202 188 177 158 150 158 172 182 187 192
274 280 274 269 264 258 256 256 253 255 256 258 245 251 270 303 294 297 218 181 203 252 298 306 317 327 332 327 332 318 267 198 155 143 146 148 147 152 162 174 182 188 194
243 286 278 269 263 259 255 256 269 258 250 255 255 250 244 235 242 269 287 299 278 250 299 308 329 341 349 347 342 54 114 134 131 133 138 145 149 157 168 175 183 190 198
162 287 290 276 267 261 260 262 264 257 250 252 254 253 252 255 253 256 269 275 280 286 327 334 322 2 14 17 44 80 113 122 129 134 140 147 154 161 169 179 189 196 202
149 137 295 285 275 268 267 268 263 263 255 252 251 254 259 264 272 274 273 279 287 281 223 217 52 32 46 58 81 99 106 112 120 131 140 149 157 167 176 186 196 202 207
117 132 288 295 292 286 282 277 272 265 261 260 260 260 261 263 265 263 270 284 289 286 269 332 105 86 84 92 101 112 117 123 129 139 149 158 168 176 185 195 203 209 215
99 97 9 314 304 298 294 289 280 280 275 268 268 261 257 261 258 261 266 270 271 281 285 226 175 120 134 120 138 135 140 149 153 160 171 178 184 191 198 204 209 213 218
73 76 19 317 301 296 292 289 283 283 287 282 282 281 270 257 255 252 250 251 250 259 268 257 184 161 152 151 164 156 155 162 176 184 192 198 202 208 211 214 216 218 221
61 58 21 310 294 290 291 287 288 292 285 291 293 291 287 283 269 263 256 249 243 238 248 250 196 159 172 180 169 181 171 182 190 200 209 214 216 218 219 221 222 223 226
57 44 7 312 293 293 291 288 287 292 293 296 300 298 294 290 278 270 263 255 247 236 238 242 210 179 188 193 187 201 197 203 207 193 207 215 219 221 222 222 224 227 230
57 44 25 3 347 329 311 298 291 290 298 312 323 318 315 301 287 276 267 264 256 245 231 233 218 187 184 193 196 212 220 227 233 188 198 211 218 221 222 223 226 230 234
52 43 34 25 11 359 352 333 307 311 354 16 12 359 352 342 336 317 290 278 265 251 231 224 214 191 177 178 203 217 219 217 233 206 190 202 206 214 222 225 229 234 237
53 44 38 38 30 29 20 5 20 56 61 55 44 29 23 19 24 8 357 343 310 260 231 214 202 183 175 168 195 233 228 214 219 215 191 194 188 200 205 220 226 232 236
55 45 42 45 45 42 25 13 3 69 62 55 50 42 43 27 32 45 41 37 24 3 313 209 182 164 143 129 88 257 254 227 222 225 219 210 179 180 179 151 103 236 237
62 51 50 57 60 55 37 29 12 46 60 51 44 33 34 36 357 16 74 90 59 42 20 8 103 101 100 71 30 284 274 270 266 355 314 226 186 169 139 101 79 36 11
44 47 54 66 73 69 54 30 351 63 63 58 54 47 43 36 19 353 27 50 52 43 25 37 64 73 74 77 77 11 325 302 285 330 307 257 211 185 156 124 111 65 44
29 32 47 64 75 83 73 3 332 78 76 70 61 48 36 39 12 348 22 61 66 76 78 62 56 67 65 50 13 251 226 257 243 179 308 276 243 203 167 147 127 128 99
9 354 31 43 58 70 78 2 326 40 74 84 87 82 59 28 9 360 12 37 51 49 64 99 103 137 119 104 88 348 322 265 247 167 34 313 301 257 184 129 83 109 141